sat.trackr.live / text

‹ back to catalog

STARLINK-33807

NORAD 63518 · 2025-071AB

PAYLOAD ACTIVE UNKNOWN

§ Identity

Operator
Country
US
Launch date
2025-04-07
Launch site
AFWTR
Launch vehicle
Mass (kg)
RCS (m²)

Purposes: comms

External: N2YO · Heavens-Above · Gunter

§ Orbital elements

Epoch: 2026-05-25T03:46:22.143072Z

Period
93.37 min
Inclination
53.1576°
Eccentricity
0.0000839
Mean motion
15.42173227 rev/d
Perigee alt
439.1 km
Apogee alt
440.3 km
Semi-major
6,817.8 km
B*
4.6299e-4
RAAN
144.2605°
Arg perigee
50.8952°
Mean anomaly
309.2129°
Rev number
6,448

§ Raw data

STARLINK-338071 63518U 25071AB  26145.15720073  .00019797  00000+0  46299-3 0  99962 63518  53.1576 144.2605 0000839  50.8952 309.2129 15.42173227 64485

JSON: /api/v1/satellites/63518 · /tle

For live sub-satellite position, see the globe view (requires WebGL).

§ Visibility from observer

Set your observer location to see the next 7 days of passes ≥ 10°. The values pass through the URL so the page stays shareable.

No JS? Fill the form by hand. The geolocation button needs JavaScript.